User: anonymous   Login
Location: Unspecified
(0.0000°N, 0.0000°E)
Time: 10:27:44
(UTC+00:00)
Language:

SMOG-P - Orbit

View from above orbital plane
View from above orbital plane
View from above satellite
View from above satellite

Ground track
Ground track

The orbit data is extracted from the following two-line orbital elements,

1 44832U 19084J   20272.06303716  .11453400  23230-5  63587-3 0  9997
2 44832  96.9437 144.0914 0010614 231.8961 128.1384 16.41416157 46773
Epoch (UTC): 28 September 2020 01:30:46
Eccentricity: 0.0010614
inclination: 96.9437°
perigee height: 155 km
apogee height: 169 km
right ascension of ascending node: 144.0914°
argument of perigee: 231.8961°
revolutions per day: 16.41416157
mean anomaly at epoch: 128.1384°
orbit number at epoch: 4677

The dashed part of the orbit path shows where the satellite is in the earth's shadow,  

DLR